Portada
METAR-TAF:

METAR-TAF

Aeroports :

Bradshaw Army Air Field

Bradshaw, Hawaii, Estats Units d'Amèrica

latitud: 19-47N, longitud: 155-33W, altitud: 1887 m

Observació

L'informe es va fer fa 45 minuts, a les 02:18 UTC
Vent 17 kt del Est amb ràfegues de 23 kt
Temperatura 19°C
Humitat 60%
Pressió 1027 hPa
Visibilitat: 12.9 km
Cel clar

METAR: PHSF 050218Z AUTO 08017G23KT 8SM CLR 19/11 A3033 RMK AO2 WSHFT 12 SLP162

Hora: 17:03 (03:03 UTC)


TAF: manca

Observacions i pronòstics meteorològics de més de 4000 aeroports (METAR i TAF).

Les estacions disponibles són els punts grocs i vermells al mapa.

Posi el ratolí al punt desitjat per veure el nom de l'estació.

Feu clic per veure les observacions i els pronòstics meteorològics.

Per canviar el mapa: feu clic els botons verds amb una creu de color negre per apropar; al botó verd amb un guió per allunyar la imatge; o en les fletxes verdes per a mapes adjacents.


METAR-TAF: